{"data":{"norad_id":69953,"intl_designator":"2026-157L","name":"STARLINK-37900","alt_names":[],"object_type":"PAYLOAD","status":"ACTIVE","operator":null,"country":"US","launch_date":"2026-07-09","launch_site_code":"AFETR","launch_vehicle":null,"mission":null,"orbit_class":"UNKNOWN","rcs_meters":null,"size_class":null,"mass_kg":null,"dimensions":null,"purposes":["comms"],"wikipedia_slug":null,"has_3d_model":false,"image_url":null,"decayed_at":null,"tle_current":{"epoch":"2026-09-18T21:02:11.453280Z","epoch_age_seconds":158070,"freshness":"FRESH","line1":"1 69953U 26157L   26261.87652145  .00025677  00000+0  76775-3 0  9999","line2":"2 69953  53.1593 341.3117 0001714  51.5677 308.5479 15.34429382 11126","mean_motion":15.34429382,"eccentricity":0.0001714,"inclination_deg":53.1593,"raan_deg":341.3117,"arg_perigee_deg":51.5677,"mean_anomaly_deg":308.5479,"bstar":0.00076775,"rev_number":1112,"period_min":93.845961038825,"perigee_km":461.44340705552,"apogee_km":463.78841715379,"semimajor_km":6840.7529121047,"source":"CELESTRAK","updated_at":"2026-09-20T09:00:44.300773Z"}}}